LGL699 ELLX-LEMH

Flight info

Callsign LGL699
Flight time 1h 40m
Altitude 37000
Route GTQ3P/06 GTQ DCT MOROK DCT ONNOF DCT VERSO DCT SARGO
Aircraft B738/M-SDE2E3FGHIRWXY/LB1

Departure

Time 2026-05-05 19:14
Airport Luxembourg-Findel International Airport (ELLX)

Arrival

Time 2026-05-05 20:54
Airport Menorca Airport (LEMH)
Time Latitude Longitude Altitude Speed Heading
2026-05-05 18:36 49.63233 6.21774 1237 ft 0 kts 240°
2026-05-05 19:05 49.63233 6.21773 1237 ft 1 kts 240°
2026-05-05 19:05 49.63219 6.21743 1246 ft 4 kts 226°
2026-05-05 19:06 49.63203 6.21732 1237 ft 4 kts 191°
2026-05-05 19:06 49.63169 6.21750 1245 ft 7 kts 152°
2026-05-05 19:06 49.63122 6.21763 1243 ft 7 kts 207°
2026-05-05 19:06 49.63093 6.21691 1243 ft 11 kts 244°
2026-05-05 19:07 49.63031 6.21495 1237 ft 19 kts 244°
2026-05-05 19:07 49.62992 6.21371 1242 ft 19 kts 244°
2026-05-05 19:07 49.62918 6.21131 1237 ft 18 kts 244°
2026-05-05 19:07 49.62864 6.20958 1242 ft 18 kts 244°
2026-05-05 19:08 49.62829 6.20844 1242 ft 17 kts 244°
2026-05-05 19:08 49.62762 6.20699 1240 ft 17 kts 224°
2026-05-05 19:08 49.62673 6.20592 1241 ft 16 kts 220°
2026-05-05 19:08 49.62599 6.20468 1240 ft 15 kts 229°
2026-05-05 19:09 49.62528 6.20343 1237 ft 17 kts 231°
2026-05-05 19:09 49.62452 6.20163 1227 ft 23 kts 240°
2026-05-05 19:09 49.62372 6.19947 1216 ft 23 kts 240°
2026-05-05 19:09 49.62294 6.19737 1205 ft 22 kts 240°
2026-05-05 19:10 49.62218 6.19533 1194 ft 22 kts 240°
2026-05-05 19:10 49.62144 6.19335 1185 ft 21 kts 240°
2026-05-05 19:10 49.62073 6.19146 1173 ft 20 kts 240°
2026-05-05 19:10 49.62006 6.18967 1169 ft 15 kts 240°
2026-05-05 19:11 49.61955 6.18831 1162 ft 14 kts 234°
2026-05-05 19:11 49.61897 6.18755 1161 ft 0 kts 217°
2026-05-05 19:12 49.61895 6.18752 1159 ft 3 kts 217°
2026-05-05 19:12 49.61856 6.18712 1161 ft 9 kts 202°
2026-05-05 19:12 49.61798 6.18727 1164 ft 8 kts 150°
2026-05-05 19:12 49.61769 6.18796 1168 ft 8 kts 77°
2026-05-05 19:13 49.61795 6.18873 1167 ft 8 kts 60°
2026-05-05 19:13 49.61889 6.19126 1182 ft 61 kts 60°
2026-05-05 19:13 49.62220 6.20017 1221 ft 127 kts 60°
2026-05-05 19:13 49.62753 6.21447 1359 ft 174 kts 60°
2026-05-05 19:14 49.63339 6.23015 2384 ft 167 kts 60°
2026-05-05 19:14 49.63939 6.24616 3150 ft 178 kts 63°
2026-05-05 19:14 49.64259 6.26381 4047 ft 167 kts 89°
2026-05-05 19:14 49.64036 6.28182 4671 ft 182 kts 114°
2026-05-05 19:15 49.63319 6.29933 5013 ft 204 kts 134°
2026-05-05 19:15 49.62174 6.31204 5544 ft 209 kts 154°
2026-05-05 19:15 49.60780 6.32025 5951 ft 223 kts 164°
2026-05-05 19:15 49.59198 6.32775 6080 ft 248 kts 166°
2026-05-05 19:16 49.57470 6.33640 6229 ft 274 kts 163°
2026-05-05 19:16 49.55714 6.34671 7115 ft 268 kts 161°
2026-05-05 19:16 49.53948 6.35761 7815 ft 278 kts 160°
2026-05-05 19:16 49.52145 6.36901 8673 ft 281 kts 160°
2026-05-05 19:17 49.50332 6.38064 9550 ft 284 kts 160°
2026-05-05 19:17 49.48488 6.39256 10270 ft 294 kts 160°
2026-05-05 19:17 49.46541 6.40514 10496 ft 320 kts 160°
2026-05-05 19:17 49.44419 6.41889 10694 ft 345 kts 159°
2026-05-05 19:18 49.42153 6.43365 11062 ft 361 kts 159°
2026-05-05 19:18 49.39822 6.44888 11720 ft 366 kts 159°
2026-05-05 19:18 49.37464 6.46393 12549 ft 367 kts 162°
2026-05-05 19:18 49.34980 6.47285 13352 ft 367 kts 176°
2026-05-05 19:19 49.32424 6.47543 14136 ft 370 kts 179°
2026-05-05 19:19 49.29842 6.47756 14875 ft 375 kts 178°
2026-05-05 19:19 49.27222 6.47974 15623 ft 379 kts 178°
2026-05-05 19:19 49.24582 6.48203 16372 ft 382 kts 178°
2026-05-05 19:20 49.21914 6.48444 17096 ft 385 kts 178°
2026-05-05 19:20 49.19230 6.48694 17815 ft 388 kts 178°
2026-05-05 19:20 49.16523 6.48952 18486 ft 392 kts 178°
2026-05-05 19:20 49.13785 6.49215 19128 ft 396 kts 177°
2026-05-05 19:21 49.11023 6.49482 19760 ft 399 kts 177°
2026-05-05 19:21 49.08277 6.49748 20368 ft 403 kts 177°
2026-05-05 19:21 49.05472 6.50021 20983 ft 405 kts 177°
2026-05-05 19:21 49.02649 6.50296 21570 ft 408 kts 176°
2026-05-05 19:22 48.99796 6.50574 22094 ft 412 kts 176°
2026-05-05 19:22 48.96927 6.50852 22611 ft 415 kts 176°
2026-05-05 19:22 48.94035 6.51131 23150 ft 418 kts 176°
2026-05-05 19:22 48.91124 6.51412 23645 ft 421 kts 176°
2026-05-05 19:23 48.88197 6.51694 24135 ft 423 kts 176°
2026-05-05 19:23 48.85246 6.51979 24612 ft 426 kts 176°
2026-05-05 19:23 48.82284 6.52264 25080 ft 428 kts 176°
2026-05-05 19:23 48.79310 6.52550 25536 ft 430 kts 176°
2026-05-05 19:24 48.76320 6.52837 25979 ft 432 kts 176°
2026-05-05 19:24 48.73355 6.53122 26413 ft 433 kts 176°
2026-05-05 19:24 48.70340 6.53410 26806 ft 435 kts 176°
2026-05-05 19:24 48.67316 6.53699 27197 ft 437 kts 176°
2026-05-05 19:25 48.64648 6.53954 27569 ft 438 kts 176°
2026-05-05 19:25 48.61610 6.54243 28097 ft 436 kts 176°
2026-05-05 19:25 48.58596 6.54531 28653 ft 433 kts 176°
2026-05-05 19:25 48.55603 6.54815 29188 ft 431 kts 176°
2026-05-05 19:26 48.52620 6.55099 29707 ft 429 kts 176°
2026-05-05 19:26 48.49630 6.55383 29813 ft 431 kts 176°
2026-05-05 19:26 48.43672 6.55949 29827 ft 427 kts 176°
2026-05-05 19:27 48.37780 6.56505 29845 ft 427 kts 176°
2026-05-05 19:27 48.31847 6.57067 29835 ft 427 kts 176°
2026-05-05 19:28 48.25913 6.57625 29846 ft 427 kts 176°
2026-05-05 19:28 48.19982 6.58182 29841 ft 427 kts 176°
2026-05-05 19:29 48.14042 6.58739 29846 ft 428 kts 176°
2026-05-05 19:29 48.08138 6.59290 29845 ft 428 kts 176°
2026-05-05 19:30 48.02197 6.59843 29870 ft 430 kts 176°
2026-05-05 19:30 47.99197 6.60122 30135 ft 433 kts 176°
2026-05-05 19:30 47.96200 6.60401 30681 ft 429 kts 176°
2026-05-05 19:31 47.93240 6.60677 31231 ft 425 kts 177°
2026-05-05 19:31 47.90293 6.60952 31698 ft 423 kts 178°
2026-05-05 19:31 47.87351 6.61224 32068 ft 424 kts 178°
2026-05-05 19:31 47.84399 6.61497 32401 ft 425 kts 178°
2026-05-05 19:32 47.81453 6.61770 32805 ft 424 kts 178°
2026-05-05 19:32 47.78510 6.62042 33219 ft 423 kts 178°
2026-05-05 19:32 47.75567 6.62314 33554 ft 423 kts 178°
2026-05-05 19:32 47.72670 6.62583 33870 ft 424 kts 179°
2026-05-05 19:33 47.69727 6.62854 34257 ft 423 kts 179°
2026-05-05 19:33 47.66796 6.63123 34610 ft 422 kts 179°
2026-05-05 19:33 47.63861 6.63391 34949 ft 422 kts 179°
2026-05-05 19:33 47.60932 6.63659 35281 ft 422 kts 179°
2026-05-05 19:34 47.58001 6.63928 35584 ft 422 kts 179°
2026-05-05 19:34 47.55071 6.64197 35926 ft 421 kts 179°
2026-05-05 19:34 47.52146 6.64465 36243 ft 421 kts 179°
2026-05-05 19:35 47.46322 6.64995 36708 ft 423 kts 179°
2026-05-05 19:35 47.43381 6.65262 36860 ft 426 kts 180°
2026-05-05 19:35 47.40418 6.65144 36876 ft 427 kts 188°
2026-05-05 19:36 47.34697 6.63097 36875 ft 421 kts 201°
2026-05-05 19:36 47.29219 6.60153 36869 ft 417 kts 201°
2026-05-05 19:37 47.23783 6.57238 36875 ft 414 kts 201°
2026-05-05 19:37 47.18369 6.54372 36890 ft 413 kts 201°
2026-05-05 19:38 47.13010 6.51560 36894 ft 412 kts 201°
2026-05-05 19:38 47.07608 6.48737 36903 ft 412 kts 201°
2026-05-05 19:39 47.02224 6.45928 36917 ft 413 kts 201°
2026-05-05 19:39 46.96795 6.43100 36896 ft 415 kts 201°
2026-05-05 19:40 46.91361 6.40278 36902 ft 415 kts 201°
2026-05-05 19:40 46.85949 6.37473 36898 ft 416 kts 201°
2026-05-05 19:41 46.80492 6.34650 36904 ft 416 kts 201°
2026-05-05 19:41 46.75046 6.31839 36907 ft 415 kts 201°
2026-05-05 19:42 46.69606 6.29039 36909 ft 414 kts 201°
2026-05-05 19:42 46.64180 6.26250 36914 ft 413 kts 201°
2026-05-05 19:43 46.58804 6.23492 36903 ft 412 kts 201°
2026-05-05 19:43 46.53405 6.20729 36908 ft 411 kts 201°
2026-05-05 19:44 46.48013 6.17975 36918 ft 410 kts 201°
2026-05-05 19:44 46.42632 6.15233 36896 ft 410 kts 201°
2026-05-05 19:45 46.37297 6.12519 36911 ft 409 kts 202°
2026-05-05 19:45 46.31932 6.09796 36905 ft 408 kts 202°
2026-05-05 19:46 46.26573 6.07082 36902 ft 408 kts 202°
2026-05-05 19:46 46.21217 6.04375 36908 ft 407 kts 202°
2026-05-05 19:47 46.15905 6.01695 36919 ft 407 kts 202°
2026-05-05 19:47 46.10563 5.99006 36908 ft 407 kts 202°
2026-05-05 19:48 46.05217 5.96320 36915 ft 406 kts 202°
2026-05-05 19:48 45.99879 5.93643 36911 ft 406 kts 202°
2026-05-05 19:49 45.94541 5.90975 36911 ft 406 kts 201°
2026-05-05 19:49 45.89199 5.88359 36913 ft 406 kts 201°
2026-05-05 19:50 45.83889 5.85780 36910 ft 406 kts 201°
2026-05-05 19:50 45.78529 5.83176 36916 ft 407 kts 201°
2026-05-05 19:51 45.73172 5.80576 36930 ft 407 kts 201°
2026-05-05 19:51 45.67800 5.77973 36917 ft 408 kts 201°
2026-05-05 19:52 45.62461 5.75391 36915 ft 408 kts 201°
2026-05-05 19:52 45.57087 5.72797 36915 ft 408 kts 201°
2026-05-05 19:53 45.51716 5.70209 36914 ft 408 kts 201°
2026-05-05 19:53 45.46338 5.67624 36919 ft 407 kts 201°
2026-05-05 19:54 45.40977 5.65051 36925 ft 406 kts 201°
2026-05-05 19:54 45.35658 5.62505 36932 ft 406 kts 201°
2026-05-05 19:55 45.30304 5.59948 36929 ft 406 kts 201°
2026-05-05 19:55 45.24950 5.57395 36934 ft 405 kts 201°
2026-05-05 19:56 45.19611 5.54852 36929 ft 405 kts 201°
2026-05-05 19:56 45.14310 5.52332 36933 ft 404 kts 201°
2026-05-05 19:57 45.08976 5.49802 36917 ft 404 kts 201°
2026-05-05 19:57 45.03643 5.47280 36939 ft 404 kts 201°
2026-05-05 19:58 44.98318 5.44767 36917 ft 404 kts 201°
2026-05-05 19:58 44.93025 5.42271 36911 ft 403 kts 202°
2026-05-05 19:59 44.87712 5.39773 36932 ft 402 kts 202°
2026-05-05 19:59 44.82414 5.37285 36912 ft 402 kts 202°
2026-05-05 20:00 44.77106 5.34796 36921 ft 402 kts 202°
2026-05-05 20:00 44.71810 5.32317 36924 ft 401 kts 202°
2026-05-05 20:01 44.66512 5.29846 36928 ft 401 kts 202°
2026-05-05 20:01 44.61220 5.27383 36906 ft 400 kts 202°
2026-05-05 20:02 44.55988 5.24952 36919 ft 398 kts 202°
2026-05-05 20:02 44.50729 5.22507 36939 ft 398 kts 202°
2026-05-05 20:03 44.45477 5.20076 36913 ft 397 kts 202°
2026-05-05 20:03 44.40235 5.17651 36928 ft 397 kts 202°
2026-05-05 20:04 44.34992 5.15230 36935 ft 397 kts 202°
2026-05-05 20:04 44.29766 5.12827 36938 ft 399 kts 202°
2026-05-05 20:05 44.24491 5.10403 36936 ft 400 kts 202°
2026-05-05 20:05 44.19207 5.07981 36930 ft 399 kts 202°
2026-05-05 20:06 44.13931 5.05561 36940 ft 399 kts 202°
2026-05-05 20:06 44.08648 5.03148 36932 ft 400 kts 202°
2026-05-05 20:07 44.03368 5.00738 36929 ft 400 kts 202°
2026-05-05 20:07 43.98120 4.98345 36914 ft 399 kts 202°
2026-05-05 20:08 43.92850 4.95950 36912 ft 398 kts 202°
2026-05-05 20:08 43.87597 4.93568 36917 ft 396 kts 202°
2026-05-05 20:09 43.82364 4.91196 36907 ft 395 kts 202°
2026-05-05 20:09 43.77143 4.88837 36908 ft 394 kts 202°
2026-05-05 20:10 43.71939 4.86491 36935 ft 393 kts 202°
2026-05-05 20:10 43.66774 4.84163 36915 ft 393 kts 202°
2026-05-05 20:11 43.61570 4.81820 36935 ft 394 kts 202°
2026-05-05 20:11 43.56358 4.79478 36936 ft 394 kts 202°
2026-05-05 20:12 43.51151 4.77147 36936 ft 394 kts 202°
2026-05-05 20:12 43.45935 4.74818 36936 ft 394 kts 202°
2026-05-05 20:13 43.40749 4.72500 36944 ft 395 kts 202°
2026-05-05 20:13 43.35526 4.70174 36942 ft 395 kts 202°
2026-05-05 20:14 43.30296 4.67853 36947 ft 395 kts 202°
2026-05-05 20:14 43.25083 4.65537 36950 ft 394 kts 202°
2026-05-05 20:15 43.19892 4.63239 36944 ft 394 kts 202°
2026-05-05 20:15 43.14687 4.60933 36942 ft 393 kts 202°
2026-05-05 20:16 43.09480 4.58635 36945 ft 393 kts 202°
2026-05-05 20:16 43.04276 4.56344 36945 ft 393 kts 202°
2026-05-05 20:17 42.99078 4.54055 36945 ft 392 kts 202°
2026-05-05 20:17 42.93879 4.51771 36944 ft 392 kts 202°
2026-05-05 20:18 42.88727 4.49513 36940 ft 391 kts 202°
2026-05-05 20:18 42.83556 4.47249 36948 ft 390 kts 202°
2026-05-05 20:19 42.78389 4.44989 36953 ft 390 kts 202°
2026-05-05 20:19 42.73222 4.42738 36953 ft 390 kts 202°
2026-05-05 20:20 42.68054 4.40491 36947 ft 390 kts 202°
2026-05-05 20:20 42.62916 4.38258 36932 ft 390 kts 203°
2026-05-05 20:21 42.57759 4.36019 36929 ft 388 kts 202°
2026-05-05 20:21 42.52618 4.33794 36935 ft 387 kts 203°
2026-05-05 20:22 42.47489 4.31573 36936 ft 386 kts 203°
2026-05-05 20:22 42.42366 4.29364 36934 ft 387 kts 202°
2026-05-05 20:23 42.37268 4.27169 36938 ft 387 kts 203°
2026-05-05 20:23 42.32135 4.24967 36932 ft 388 kts 203°
2026-05-05 20:24 42.27008 4.22758 36937 ft 386 kts 203°
2026-05-05 20:24 42.21885 4.20561 36920 ft 386 kts 203°
2026-05-05 20:25 42.16772 4.18380 36929 ft 384 kts 203°
2026-05-05 20:25 42.13040 4.16784 36941 ft 384 kts 203°
2026-05-05 20:26 42.07945 4.14608 36942 ft 384 kts 203°
2026-05-05 20:26 42.02851 4.12437 36947 ft 384 kts 203°
2026-05-05 20:27 41.97745 4.10265 36943 ft 385 kts 203°
2026-05-05 20:27 41.92666 4.08107 36944 ft 386 kts 202°
2026-05-05 20:28 41.87539 4.05933 36640 ft 391 kts 202°
2026-05-05 20:28 41.84952 4.04839 36150 ft 388 kts 202°
2026-05-05 20:28 41.82397 4.03761 35598 ft 384 kts 202°
2026-05-05 20:28 41.79851 4.02687 34954 ft 383 kts 202°
2026-05-05 20:29 41.77310 4.01615 34293 ft 382 kts 202°
2026-05-05 20:29 41.74783 4.00549 33671 ft 380 kts 202°
2026-05-05 20:29 41.72298 3.99503 33033 ft 378 kts 202°
2026-05-05 20:29 41.69805 3.98453 32537 ft 373 kts 202°
2026-05-05 20:30 41.67349 3.97421 32063 ft 368 kts 203°
2026-05-05 20:30 41.64925 3.96403 31602 ft 362 kts 203°
2026-05-05 20:30 41.62536 3.95400 31141 ft 358 kts 203°
2026-05-05 20:30 41.60121 3.94544 30355 ft 365 kts 197°
2026-05-05 20:31 41.57545 3.94194 29534 ft 377 kts 189°
2026-05-05 20:31 41.54933 3.94278 29079 ft 374 kts 186°
2026-05-05 20:31 41.52375 3.94415 28598 ft 370 kts 186°
2026-05-05 20:31 41.49823 3.94555 28129 ft 365 kts 186°
2026-05-05 20:32 41.47299 3.94693 27677 ft 361 kts 185°
2026-05-05 20:32 41.44799 3.94822 27232 ft 357 kts 185°
2026-05-05 20:32 41.42329 3.94944 26782 ft 354 kts 185°
2026-05-05 20:32 41.39880 3.95062 26343 ft 351 kts 185°
2026-05-05 20:33 41.37414 3.95174 25920 ft 360 kts 185°
2026-05-05 20:33 41.34857 3.95282 25456 ft 373 kts 184°
2026-05-05 20:33 41.32263 3.95399 24978 ft 372 kts 184°
2026-05-05 20:33 41.29694 3.95522 24507 ft 367 kts 184°
2026-05-05 20:34 41.27192 3.95644 24053 ft 362 kts 184°
2026-05-05 20:34 41.24690 3.95765 23600 ft 358 kts 184°
2026-05-05 20:34 41.22219 3.95882 23157 ft 353 kts 184°
2026-05-05 20:34 41.19775 3.95996 22643 ft 350 kts 184°
2026-05-05 20:35 41.17309 3.96107 21886 ft 356 kts 183°
2026-05-05 20:35 41.14853 3.96220 21411 ft 352 kts 183°
2026-05-05 20:35 41.12420 3.96333 20974 ft 348 kts 183°
2026-05-05 20:35 41.10011 3.96446 20535 ft 344 kts 183°
2026-05-05 20:36 41.07664 3.96554 20105 ft 340 kts 183°
2026-05-05 20:36 41.05313 3.96663 19688 ft 337 kts 183°
2026-05-05 20:36 41.02985 3.96770 19270 ft 333 kts 183°
2026-05-05 20:36 41.00679 3.96876 18853 ft 330 kts 183°
2026-05-05 20:37 40.98390 3.96980 18447 ft 327 kts 183°
2026-05-05 20:37 40.96883 3.97048 18177 ft 327 kts 183°
2026-05-05 20:37 40.93843 3.97186 17652 ft 327 kts 183°
2026-05-05 20:37 40.91532 3.97289 17436 ft 337 kts 183°
2026-05-05 20:38 40.89195 3.97394 17191 ft 342 kts 182°
2026-05-05 20:38 40.86815 3.97503 16942 ft 343 kts 182°
2026-05-05 20:38 40.84438 3.97614 16690 ft 341 kts 182°
2026-05-05 20:38 40.82077 3.97724 16431 ft 339 kts 182°
2026-05-05 20:39 40.79721 3.97832 16179 ft 338 kts 182°
2026-05-05 20:39 40.77381 3.97940 15851 ft 334 kts 182°
2026-05-05 20:39 40.75077 3.98047 15454 ft 329 kts 182°
2026-05-05 20:39 40.72809 3.98152 15053 ft 324 kts 182°
2026-05-05 20:40 40.70567 3.98255 14646 ft 321 kts 182°
2026-05-05 20:40 40.68375 3.98354 14251 ft 317 kts 182°
2026-05-05 20:40 40.66178 3.98454 13857 ft 314 kts 182°
2026-05-05 20:40 40.64002 3.98553 13451 ft 311 kts 182°
2026-05-05 20:41 40.61848 3.98651 13074 ft 309 kts 182°
2026-05-05 20:41 40.59695 3.98746 12691 ft 311 kts 182°
2026-05-05 20:41 40.57519 3.98844 12190 ft 315 kts 182°
2026-05-05 20:41 40.55332 3.98943 11794 ft 312 kts 182°
2026-05-05 20:42 40.53207 3.99043 11669 ft 300 kts 182°
2026-05-05 20:42 40.51156 3.99138 11510 ft 290 kts 182°
2026-05-05 20:42 40.49195 3.99356 11295 ft 288 kts 174°
2026-05-05 20:42 40.47267 3.99994 11167 ft 281 kts 169°
2026-05-05 20:43 40.45410 4.00694 10987 ft 275 kts 169°
2026-05-05 20:43 40.43579 4.01385 10699 ft 273 kts 169°
2026-05-05 20:43 40.41751 4.02062 10399 ft 272 kts 169°
2026-05-05 20:43 40.39934 4.02728 10088 ft 270 kts 169°
2026-05-05 20:44 40.38127 4.03387 9734 ft 267 kts 169°
2026-05-05 20:44 40.36338 4.04030 9190 ft 267 kts 169°
2026-05-05 20:44 40.34544 4.04669 8682 ft 266 kts 169°
2026-05-05 20:44 40.32784 4.05294 8205 ft 265 kts 169°
2026-05-05 20:45 40.29263 4.06543 7327 ft 259 kts 169°
2026-05-05 20:45 40.27542 4.07154 6983 ft 253 kts 169°
2026-05-05 20:45 40.25870 4.07748 6700 ft 245 kts 170°
2026-05-05 20:46 40.24258 4.08319 6437 ft 237 kts 170°
2026-05-05 20:46 40.22674 4.08881 6202 ft 236 kts 170°
2026-05-05 20:46 40.21074 4.09444 5970 ft 243 kts 170°
2026-05-05 20:46 40.19402 4.10028 5718 ft 253 kts 170°
2026-05-05 20:47 40.17717 4.10621 5443 ft 253 kts 169°
2026-05-05 20:47 40.16023 4.11220 5180 ft 251 kts 169°
2026-05-05 20:47 40.14341 4.11814 4918 ft 249 kts 169°
2026-05-05 20:47 40.12671 4.12402 4663 ft 247 kts 169°
2026-05-05 20:48 40.11016 4.12985 4405 ft 245 kts 169°
2026-05-05 20:48 40.09430 4.13789 4144 ft 249 kts 148°
2026-05-05 20:48 40.08265 4.15447 4039 ft 247 kts 128°
2026-05-05 20:48 40.07395 4.17313 3942 ft 232 kts 124°
2026-05-05 20:49 40.06639 4.19034 3831 ft 211 kts 125°
2026-05-05 20:49 40.05928 4.20629 3731 ft 198 kts 126°
2026-05-05 20:49 40.05235 4.22163 3637 ft 195 kts 126°
2026-05-05 20:49 40.04541 4.23689 3546 ft 197 kts 128°
2026-05-05 20:50 40.03602 4.24820 3425 ft 175 kts 168°
2026-05-05 20:50 40.02835 4.24877 3368 ft 164 kts 192°
2026-05-05 20:50 40.01330 4.24578 3083 ft 163 kts 190°
2026-05-05 20:50 40.00220 4.24381 2856 ft 159 kts 190°
2026-05-05 20:51 39.99125 4.24181 2652 ft 160 kts 191°
2026-05-05 20:51 39.98040 4.23982 2435 ft 159 kts 189°
2026-05-05 20:51 39.96935 4.23781 2238 ft 162 kts 190°
2026-05-05 20:51 39.95826 4.23578 2007 ft 159 kts 190°
2026-05-05 20:52 39.94750 4.23382 1796 ft 154 kts 190°
2026-05-05 20:52 39.93708 4.23191 1613 ft 151 kts 190°
2026-05-05 20:52 39.92702 4.23008 1409 ft 143 kts 190°
2026-05-05 20:52 39.91724 4.22830 1221 ft 142 kts 190°
2026-05-05 20:53 39.90738 4.22644 1044 ft 143 kts 191°
2026-05-05 20:53 39.89757 4.22552 832 ft 144 kts 185°
2026-05-05 20:53 39.88775 4.22372 659 ft 140 kts 190°
2026-05-05 20:53 39.87812 4.22180 460 ft 142 kts 189°
2026-05-05 20:54 39.86832 4.21982 312 ft 136 kts 189°
2026-05-05 20:54 39.86019 4.21813 302 ft 90 kts 189°
2026-05-05 20:54 39.85641 4.21745 295 ft 38 kts 175°
2026-05-05 20:54 39.85431 4.21836 288 ft 21 kts 150°
2026-05-05 20:55 39.85442 4.21935 285 ft 16 kts
2026-05-05 20:55 39.85546 4.21956 287 ft 15 kts
2026-05-05 20:55 39.85649 4.21978 288 ft 14 kts
2026-05-05 20:55 39.85745 4.21999 293 ft 14 kts
2026-05-05 20:56 39.85838 4.22018 297 ft 13 kts
2026-05-05 20:56 39.85927 4.22037 295 ft 13 kts
2026-05-05 20:56 39.86015 4.22055 295 ft 13 kts
2026-05-05 20:56 39.86104 4.22073 296 ft 13 kts
2026-05-05 20:57 39.86184 4.22111 294 ft 13 kts 62°
2026-05-05 20:57 39.86190 4.22243 290 ft 16 kts 58°
2026-05-05 20:57 39.86293 4.22281 290 ft 15 kts
2026-05-05 20:57 39.86396 4.22303 287 ft 15 kts
2026-05-05 20:58 39.86468 4.22336 287 ft 10 kts 59°
2026-05-05 20:58 39.86469 4.22394 285 ft 1 kts 99°
2026-05-05 20:58 39.86468 4.22399 285 ft 0 kts 99°